TITAN 3A DEB (TRUSS), 1000

Orbit data source: Space-Track

TITAN 3A DEB (TRUSS), 1000 is space debris in LEO originally from a launch on Thu, 11 Feb 1965 UTC launched from the Air Force Eastern Test Range (AFETR). Debris objects in space refer to the collection of defunct objects orbiting the Earth. Examples of debris include non-operational satellites, rocket bodies, and fragments generated from explosions, collisions, or faulty payload assembly.

Loading next visibility...
Identifier
1000, 1965-008B
Orbit
LEO
Country
Flag of USUS
Related business
Manufacturer
Martin Marietta
Mission
Spacecraft
Bus & Motor
TRANSTAGE, Unknown motor
Mass
1,950 kg wet, 1,950 kg dry
Launch date (UTC)
1965-02-11 (61 years ago)
Launch vehicle
Unknown
Launch site
Air Force Eastern Test Range (AFETR)
Object type
Payload
Rocket body
Debris
Shape & HBR
Cyl + 2 Nozzle, 2.3 m
Radar Cross Section
14.974 m², Large (>1 m²)

Expand to show TLE details & history
Last TLE update: 1 day ago

TLE from 1 day ago
0 TITAN 3A DEB (TRUSS)
1 01000U 65008B   25241.82520232  .00000021  00000-0  16203-2 0  9995
2 01000  32.1459 306.7993 0011944  42.0616 318.0797  9.88890987188516
Epoch: 2025-08-29T19:48Z
TLE epoch observation values (Epoch: 2025-08-29T19:48:17.48Z)
Latitude
Longitude
31.45818°
Altitude
2,781.28 km
Speed
6.602 km/s
True Right ascension
20h 27m 11s
True Declination
0° 00' 00"
Sunlit
Object was in full shadow at epoch
Visualization orbit readout
Latitude
Unknown
Longitude
Unknown
Altitude
Unknown
Speed
Unknown
Apparent Right ascension
Unknown
Apparent Declination
Unknown
Sunlit
N/A
Visualization observer readout
Local Sidereal Time
15:58:59
Azimuth
Unknown
Elevation
Unknown
Doppler factor
Unknown
Orbital elements
Apogee altitude
2,804.184 km
Perigee altitude
2,782.276 km
Semi-major axis
9,171.367 km
Eccentricity
0.00119
Inclination
32.1459°
RAAN
306.7993°
Arg. of periapsis
42.0616°
True anomaly
317.98816°
Mean anomaly
318.0797°
Eccentric anomaly
318.03394°
Mean motion
2.47111 °/min
Orbital period
145.68 mins
BSTAR
0.0016203
Loading maneuver chart data...
Computing Atmospheric mass density...
Loading historical data...
Loading historical data...
Loading historical data...
Loading historical data...
Loading historical data...
Loading historical data...
Loading historical data...
Other satellites on launch #8 in the year 1965 (1965-02-11 UTC)

Documentation

Showing up to 5 results
|